Location: T�bingen+AIT
(48.5342°N, 9.0700°E)
Time: 20:25:35
(UTC+02:00)

Meteor 2-9 Rocket - Pass Details

Date: 14 September 2017
Orbit: 791 x 896 km, 81.3° (Epoch: 19 September)

Event Time Altitude Azimuth Distance (km) Brightness Sun altitude
Rises 20:19:10 0° 184° (S) 3,361 7.2 -7.5°
Reaches altitude 10° 20:21:35 10° 182° (S) 2,416 6.5 -7.9°
Maximum altitude 20:27:01 74° 98° (E) 844 4.1 -8.8°
Drops below altitude 10° 20:32:22 10° 15° (NNE) 2,381 6.6 -9.6°
Sets 20:34:44 0° 14° (NNE) 3,309 7.3 -10.0°
